Home   Weather   Shemya Island   Past weeks
Flag for USA

Past Weather in Shemya Island, Alaska, USA — Yesterday and Last 2 Weeks

Now
43 °F

Mostly cloudy.


Feels Like: 36 °F
Forecast: 43 / 41 °F
Wind: 12 mph from North

Location: Adak

Current Time: May 25, 2019 at 8:59:29 pm

Latest Report: May 25, 2019 at 8:28 pm


Visibility: 10 mi

Pressure: 29.60 "Hg

Humidity: 87%

Dew Point: 39 °F

Location of Shemya IslandLocation

Past Weather in Shemya Island — Graph

°F

Shemya Island Temperature Yesterday

Maximum temperature yesterday: 42 °F (at 11:56 am)
Minimum temperature yesterday: 39 °F (at 10:06 pm)
Average temperature yesterday: 41 °F

High & Low Weather Summary for the Past Weeks

 TemperatureHumidityPressure
High49 °F (May 13, 2:56 pm)97% (May 11, 2:56 am)30.20 "Hg (May 11, 2:56 am)
Low25 °F (May 13, 6:56 am)52% (May 13, 2:56 pm)29.55 "Hg (May 20, 6:56 pm)
Average41 °F81%29.94 "Hg
* Reported May 10 7:34 pm — May 25 7:56 pm, Shemya Island. Weather by CustomWeather, © 2019

Note: Actual official high and low records may vary slightly from our data, if they occured in-between our weather recording intervals... More about our weather records

Advertising

Shemya Island Weather History for the Previous 24 Hours

Scroll right to see more
 ConditionsComfort  
Time TempWeatherWind HumidityBarometerVisibility
7:56 pm
Sat, May 25
43 °FLow clouds.13 mph86%29.61 "Hg10 mi
7:15 pm45 °FLow clouds.14 mph81%29.62 "Hg10 mi
6:56 pm44 °FOvercast.13 mph85%29.62 "Hg10 mi
5:56 pm43 °FOvercast.13 mph86%29.63 "Hg10 mi
4:56 pm44 °FMore clouds than sun.9 mph85%29.65 "Hg10 mi
4:05 pm43 °FLow clouds.12 mph87%29.67 "Hg10 mi
3:56 pm44 °FOvercast.12 mph85%29.67 "Hg10 mi
2:56 pm44 °FOvercast.12 mph85%29.69 "Hg10 mi
1:56 pm44 °FOvercast.10 mph89%29.71 "Hg10 mi
1:34 pm45 °FOvercast.10 mph87%29.73 "Hg10 mi
1:10 pm45 °FLow clouds.13 mph93%29.74 "Hg10 mi
12:56 pm43 °FOvercast.13 mph93%29.74 "Hg10 mi
12:31 pm43 °FOvercast.13 mph93%29.75 "Hg10 mi
12:08 pm43 °FMostly cloudy.13 mph93%29.75 "Hg10 mi
11:30 am43 °FFog.13 mph93%29.77 "Hg4 mi
10:56 am42 °FFog.14 mph92%29.78 "Hg4 mi
10:19 am43 °FMostly cloudy.14 mph87%29.79 "Hg8 mi
9:56 am41 °FFog.12 mph93%29.80 "Hg6 mi
8:56 am40 °FOvercast.12 mph93%29.81 "Hg10 mi
8:43 am39 °FMostly cloudy.10 mph93%29.81 "Hg8 mi
8:22 am39 °FCloudy.13 mph93%29.82 "Hg10 mi
7:56 am40 °FMore clouds than sun.13 mph93%29.82 "Hg10 mi
6:56 am40 °FMostly cloudy.10 mph93%29.83 "Hg10 mi
6:33 am39 °FCloudy.12 mph93%29.84 "Hg10 mi
5:56 am40 °FCloudy.12 mph93%29.85 "Hg9 mi
5:19 am39 °FMostly cloudy.15 mph93%29.86 "Hg7 mi
4:56 am39 °FMostly cloudy.15 mph93%29.87 "Hg10 mi
4:39 am39 °FMostly cloudy.17 mph87%29.87 "Hg9 mi
4:14 am39 °FOvercast.16 mph87%29.88 "Hg10 mi
3:56 am39 °FOvercast.15 mph89%29.88 "Hg10 mi
3:32 am39 °FOvercast.15 mph87%29.90 "Hg10 mi
2:56 am39 °FOvercast.16 mph86%29.92 "Hg10 mi
1:56 am39 °FOvercast.18 mph89%29.95 "Hg10 mi
1:27 am39 °FMostly cloudy.16 mph93%29.96 "Hg10 mi
12:56 am40 °FLight rain. Fog.21 mph89%29.97 "Hg6 mi
12:16 am39 °FMostly cloudy.18 mph93%29.98 "Hg10 mi
11:56 pm
Fri, May 24
40 °FLow clouds.17 mph89%29.99 "Hg9 mi
10:56 pm40 °FOvercast.20 mph89%30.00 "Hg9 mi
10:06 pm39 °FMostly cloudy.16 mph93%29.99 "Hg10 mi
9:56 pm40 °FMostly cloudy.16 mph89%29.99 "Hg10 mi
8:56 pm41 °FMostly cloudy.20 mph89%29.99 "Hg10 mi
8:40 pm41 °FCloudy.20 mph93%29.99 "Hg9 mi
8:11 pm41 °FFog.20 mph87%30.00 "Hg3 mi
Weather by CustomWeather, © 2019

See weather overview